Regional Weather Roundup
Issued by NWS

Current Version | Previous Version | Text Only | Print | Product List | Glossary On
Versions: 1 2 3 4 5 6 7 8 9 10 11 12 13 14 15 16 17 18 19 20 21 22 23 24 25 26 27 28 29 30 31 32 33 34 35 36 37 38 39 40 41 42 43 44 45 46 47 48 49 50
000
ASUS44 KEWX 221810
RWRTX
SOUTH TEXAS REGIONAL WEATHER ROUNDUP
NATIONAL WEATHER SERVICE AUSTIN/SAN ANTONIO TX
1200 PM CST SAT NOV 22 2014

NOTE: "FAIR" INDICATED FEW OR NO CLOUDS BELOW 12,000 FEET WITH NO
SIGNIFICANT WEATHER AND/OR OBSTRUCTIONS TO VISIBILITY.

* - THESE STATIONS ARE NOT NWS OR FAA STATIONS...AND ARE NOT SUBJECT
    TO NWS AND FAA QUALITY CONTROL.

TXZ171-172-183>190-221900-
TEXAS HILL COUNTRY AND EDWARDS PLATEAU

CITY           SKY/WX    TMP DP  RH WIND       PRES   REMARKS
JUNCTION       CLOUDY    69  63  81 S15       29.87F
6HR MIN TEMP:  64; 6HR MAX TEMP:  70; 6HR PCP:  0.04;

*LLANO         CLOUDY    64  64 100 SE6       29.92F THUNDER FOG
BURNET         TSTM      63  62  97 SE8       29.93F
6HR MIN TEMP:  63; 6HR MAX TEMP:  65; 6HR PCP:  0.18;

*HORSESHOE BAY TSTM      63  63 100 W10G16    29.90F
6HR MIN TEMP:  63; 6HR MAX TEMP:  66; 6HR PCP:  0.66;

*KERRVILLE     CLOUDY    66  64  94 S15       29.89F
6HR MIN TEMP:  64; 6HR MAX TEMP:  66; 6HR PCP:  0.06;

*FREDERICKSBRG CLOUDY    65  63  93 S6        29.90F
6HR MIN TEMP:  64; 6HR MAX TEMP:  65; 6HR PCP:  0.57;

*ROCKSPRINGS   PTSUNNY   66  63  88 MISG      29.90F
*BOERNE STAGE  CLOUDY    64  63  94 S9        29.91F
*CASTROVILLE   CLOUDY    70  68  94 S15       29.89F
HONDO          CLOUDY    66  66 100 S17       29.90F
6HR MIN TEMP:  62; 6HR MAX TEMP:  66; 6HR PCP:  0.04;

*UVALDE        CLOUDY    73  69  86 S14       29.88F
6HR MIN TEMP:  68; 6HR MAX TEMP:  73; 6HR PCP:  0.01;

DEL RIO        CLOUDY    71  65  81 SE12      29.85F
6HR MIN TEMP:  66; 6HR MAX TEMP:  72; 6HR PCP:  0.04;

LAUGHLIN AFB   CLOUDY    72  68  88 E12       29.85F
6HR MIN TEMP:  66; 6HR MAX TEMP:  72;

CARRIZO SPRGS  PTSUNNY   72  66  83 S8        29.86F
$$

TXZ173-191>194-202-209-217>225-228-221900-
CENTRAL AND SOUTH CENTRAL TEXAS

CITY           SKY/WX    TMP DP  RH WIND       PRES   REMARKS
GEORGETOWN     CLOUDY    66  61  82 SE10G22   29.91F
AUSTIN/BERGSTM TSTM      65  63  93 SE13      29.89F
6HR MIN TEMP:  64; 6HR MAX TEMP:  66; 6HR PCP:  0.19;

AUSTIN/MABRY   CLOUDY    64  63  96 E9        29.90F THUNDER
6HR MIN TEMP:  64; 6HR MAX TEMP:  65; 6HR PCP:  0.07;

*AUSTIN/EXEC   LGT RAIN  64  63  94 E16G22    29.90F
*LAGO VISTA    CLOUDY    64  62  92 E14G21    29.91F
6HR MIN TEMP:  64; 6HR MAX TEMP:  66; 6HR PCP:  0.04;

SAN MARCOS     TSTM      66  63  88 E15       29.90F
NEW BRAUNFELS  TSTM      68  32  26 S8        29.86F
6HR MIN TEMP:  67; 6HR MAX TEMP:  68;

RANDOLPH AFB   LGT RAIN  66  66 100 S8        29.88F
6HR MIN TEMP:  66; 6HR MAX TEMP:  67; 6HR PCP:  0.62;

PT SAN ANTONIO CLOUDY    68  68 100 S8        29.86F
6HR MIN TEMP:  67; 6HR MAX TEMP:  68; 6HR PCP:  0.17;

SAN ANTONIO    CLOUDY    69  66  90 SE13      29.89F
6HR MIN TEMP:  67; 6HR MAX TEMP:  69; 6HR PCP:  0.18;

STINSON FIELD  CLOUDY    69  67  93 SE9       29.86F
6HR MIN TEMP:  67; 6HR MAX TEMP:  69; 6HR PCP:  0.08;

*PLEASANTON    CLOUDY    74  67  81 S16       29.88F
6HR MIN TEMP:  68; 6HR MAX TEMP:  74; 6HR PCP:  0.01;

*LA GRANGE     TSTM      67  65  93 SE8       29.93F
6HR MIN TEMP:  64; 6HR MAX TEMP:  69; 6HR PCP:  0.05;

*GIDDINGS      LGT RAIN  64  62  94 E8        29.99F
6HR MIN TEMP:  62; 6HR MAX TEMP:  64; 6HR PCP:  0.14;

*GONZALES      CLOUDY    68  67  97 SE10G18   29.88F
6HR MIN TEMP:  66; 6HR MAX TEMP:  68; 6HR PCP:  0.40;

$$

TXZ163>164-176>182-195>201-210>213-226-227-235-221900-
SOUTHEAST TEXAS

CITY           SKY/WX    TMP DP  RH WIND       PRES   REMARKS
COLLEGE STN    CLOUDY    64  62  93 E10       29.99F
6HR MIN TEMP:  60; 6HR MAX TEMP:  64; 6HR PCP:  0.08;

*BRYAN         CLOUDY    62  61  96 E8        30.00F
6HR MIN TEMP:  60; 6HR MAX TEMP:  64; 6HR PCP:  0.07;

*CALDWELL      CLOUDY    63  63 100 E7        30.00F
*CROCKETT      DRIZZLE   68  63  83 S5        30.09F
*BRENHAM       CLOUDY    66  64  93 E9        29.99F
6HR MIN TEMP:  62; 6HR MAX TEMP:  66; 6HR PCP:  0.02;

HUNTSVILLE     LGT RAIN  62  61  96 CALM      30.04F
6HR MIN TEMP:  57; 6HR MAX TEMP:  65; 6HR PCP:  0.06;

CONROE         CLOUDY    66  60  81 E5        30.04F
6HR MIN TEMP:  56; 6HR MAX TEMP:  67;

HOUSTON BUSH   CLOUDY    66  62  87 SE9       30.02F
6HR MIN TEMP:  59; 6HR MAX TEMP:  66;

HOUSTON HOBBY  CLOUDY    65  62  90 E12       30.00F
6HR MIN TEMP:  62; 6HR MAX TEMP:  66;

*HOUSTON SW AP CLOUDY    56  55  95 NE9       29.99F
6HR MIN TEMP:  52; 6HR MAX TEMP:  56;

PEARLAND       CLOUDY    65  62  90 E12       30.01F
6HR MIN TEMP:  63; 6HR MAX TEMP:  65; 6HR PCP: TRACE;

HOUSTON HOOKS  CLOUDY    66  61  84 E8        30.02F
6HR MIN TEMP:  57; 6HR MAX TEMP:  66;

ELLINGTON FLD  CLOUDY    64  63  94 E9        30.02F FOG
SUGAR LAND     CLOUDY    68  63  84 E10       29.97F
6HR MIN TEMP:  62; 6HR MAX TEMP:  68;

*HOUSTON EXEC  CLOUDY    68 N/A N/A E14       29.98F
*CLEVELAND MUN NOT AVBL
*WHARTON       CLOUDY    71  65  82 SE16G22   29.94F
6HR MIN TEMP:  61; 6HR MAX TEMP:  72;

*COLUMBUS      CLOUDY    69  65  88 E9G16     29.93F
6HR MIN TEMP:  62; 6HR MAX TEMP:  70;

$$

TXZ214>216-236>238-221900-
THE UPPER TEXAS COAST

CITY           SKY/WX    TMP DP  RH WIND       PRES   REMARKS
*ORANGE        CLOUDY    66  62  87 E10G17    30.05F
6HR MIN TEMP:  55; 6HR MAX TEMP:  69;

PORT ARTHUR    CLOUDY    67  60  78 E13       30.03F
6HR MIN TEMP:  57; 6HR MAX TEMP:  68;

GALVESTON      LGT RAIN  66  65  96 SE16      30.00F FOG
6HR MIN TEMP:  63; 6HR MAX TEMP:  66; 6HR PCP: TRACE;

ANGLETON       CLOUDY    68  66  93 SE9G20    29.95F
6HR MIN TEMP:  63; 6HR MAX TEMP:  68; 6HR PCP:  0.06;

*BAY CITY      DRIZZLE   71  68  91 SE6G16    29.94F
PALACIOS       CLOUDY    72  67  84 SE18G26   29.91F
6HR MIN TEMP:  67; 6HR MAX TEMP:  72; 6HR PCP: TRACE;

$$

TXZ229>234-239>247-221900-
TEXAS COASTAL BEND AND RIO GRANDE PLAINS

CITY           SKY/WX    TMP DP  RH WIND       PRES   REMARKS
VICTORIA       LGT RAIN  71  68  90 SE21G28   29.90F FOG
6HR MIN TEMP:  67; 6HR MAX TEMP:  72; 6HR PCP:  0.05;

*BEEVILLE      TSTM      71  71 100 S14G21    29.89F
6HR MIN TEMP:  69; 6HR MAX TEMP:  72; 6HR PCP:  0.34;

ROCKPORT       CLOUDY    71  67  87 SE17      29.90F
6HR MIN TEMP:  66; 6HR MAX TEMP:  73; 6HR PCP: TRACE;

*PORT ARANSAS  CLOUDY    71  68  88 SE14G20   29.91F FOG
6HR MIN TEMP:  68; 6HR MAX TEMP:  72;

*PORT LAVACA   RAIN      68  65  92 E17       29.93F
*INGLESIDE     CLOUDY    75  68  78 SE21G30   29.89F
CORPUS CHRISTI PTSUNNY   75  70  84 S18G31    29.90F
6HR MIN TEMP:  71; 6HR MAX TEMP:  75; 6HR PCP:  0.11;

CORPUS NAS     CLOUDY    74  67  78 S18       29.91F
6HR MIN TEMP:  70; 6HR MAX TEMP:  74; 6HR PCP:  0.11;

*ROBSTOWN      CLOUDY    77  70  79 S25G31    29.90F
ALICE          PTSUNNY   79  68  69 S17G29    29.88F
6HR MIN TEMP:  71; 6HR MAX TEMP:  79; 6HR PCP:  0.04;

KINGSVILLE NAS LGT RAIN  77  70  79 SE17      29.90F
6HR MIN TEMP:  70; 6HR MAX TEMP:  77; 6HR PCP:  0.02;

COTULLA        CLOUDY    76  66  71 S6        29.88F
6HR MIN TEMP:  69; 6HR MAX TEMP:  76; 6HR PCP:  0.14;

*FAITH RANCH   PTSUNNY   73  64  73 S14       29.88F
LAREDO         PTSUNNY   79  65  62 S20       29.87F
6HR MIN TEMP:  71; 6HR MAX TEMP:  79;

$$

TXZ248>255-221900-
DEEP SOUTH TEXAS

CITY           SKY/WX    TMP DP  RH WIND       PRES   REMARKS
BROWNSVILLE    PTSUNNY   80  71  74 S29G35    29.90F
6HR MIN TEMP:  69; 6HR MAX TEMP:  80; 6HR PCP:  0.02;

PORT ISABEL    PTSUNNY   78  70  76 S22       29.90F
6HR MIN TEMP:  70; 6HR MAX TEMP:  78; 6HR PCP: TRACE;

*SOUTH PADRE   PTSUNNY   75  70  83 SE9       29.91F
HARLINGEN      CLOUDY    79  67  66 S25       29.89F
6HR MIN TEMP:  71; 6HR MAX TEMP:  80; 6HR PCP: TRACE;

*HEBBRONVILLE  CLOUDY    75  65  70 SE14G21   29.89F
MCALLEN        CLOUDY    77  69  76 S14       29.90F


USA.gov is the U.S. government's official web portal to all federal, state and local government web resources and services.